Home   Weather   Tonk   Past weeks

Flag for India Past Weather in Tonk, Rajasthan, India — Yesterday and Last 2 Weeks

Now
70 °F

Scattered clouds.


Feels Like: 70 °F
Forecast: 51 / 72 °F
Wind: 1 mph from North

Location: Jaipur / Sanganer

Current Time: Jan 20, 2017 at 5:41:19 pm

Latest Report: Jan 20, 2017 at 5:00 pm


Visibility: 3 mi

Pressure: 30.12 "Hg

Humidity: 23%

Dew Point: 30 °F

Location of TonkLocation

Past Weather in Tonk — Graph

°F

Tonk Temperature Yesterday

Maximum temperature yesterday: 73 °F (at 2:30 pm)
Minimum temperature yesterday: 46 °F (at 6:30 am)
Average temperature yesterday: 60 °F

High & Low Weather Summary for the Past Weeks

 TemperatureHumidityPressure
High75 °F (Jan 5, 4:30 pm)100% (Jan 6, 5:00 am)30.30 "Hg (Jan 6, 5:00 am)
Low39 °F (Jan 12, 5:30 am)15% (Jan 13, 5:00 pm)27.00 "Hg (Jan 6, 7:30 pm)
Average58 °F52%30.04 "Hg
* Reported Jan 5 4:30 pm — Jan 20 4:30 pm, Tonk, Weather by CustomWeather, © 2017

Note: Actual official high and low records may vary slightly from our data, if they occured in-between our weather recording intervals... More about our weather records

Advertising

Tonk Weather History for the Previous 24 Hours

Scroll right to see more
 ConditionsComfort  
Time TempWeatherWind HumidityBarometerVisibility
4:30 pm
Fri, Jan 20
70 °FScattered clouds.No wind23%30.12 "Hg3 mi
4:00 pm72 °FScattered clouds.No wind20%30.12 "Hg3 mi
3:30 pm70 °FScattered clouds.1 mph20%30.15 "Hg3 mi
3:00 pm72 °FScattered clouds.1 mph20%30.15 "Hg3 mi
2:30 pm70 °FScattered clouds.1 mph20%30.15 "Hg3 mi
2:00 pm70 °FScattered clouds.1 mph23%30.18 "Hg3 mi
1:00 pm68 °FScattered clouds.No wind26%30.21 "Hg3 mi
12:30 pm66 °FScattered clouds.No wind28%30.24 "Hg3 mi
12:00 pm64 °FScattered clouds.1 mph34%30.24 "Hg3 mi
11:30 am64 °FScattered clouds.No wind37%30.27 "Hg3 mi
10:30 am59 °FHaze.No wind45%30.27 "Hg2 mi
10:00 am59 °FHaze.No wind48%30.27 "Hg2 mi
9:30 am57 °FHaze.No wind51%30.27 "Hg2 mi
9:00 am55 °FHaze.No wind55%30.24 "Hg2 mi
8:30 am52 °FHaze.No wind67%30.24 "Hg2 mi
8:00 am48 °FHaze.No wind76%30.24 "Hg2 mi
7:30 am48 °FHaze.No wind76%30.24 "Hg2 mi
7:00 am46 °FHaze.7 mph76%30.21 "Hg2 mi
6:30 am48 °FHaze.5 mph66%30.21 "Hg2 mi
6:00 am48 °FHaze.No wind66%30.18 "Hg2 mi
5:30 am48 °FHaze.No wind66%30.18 "Hg2 mi
5:00 am48 °FHaze.No wind66%30.18 "Hg2 mi
4:30 am52 °FHaze.No wind54%30.18 "Hg2 mi
4:00 am52 °FHaze.1 mph54%30.18 "Hg2 mi
3:30 am52 °FHaze.5 mph54%30.21 "Hg2 mi
3:00 am52 °FHaze.5 mph54%30.21 "Hg2 mi
2:30 am55 °FHaze.3 mph44%30.21 "Hg2 mi
2:00 am55 °FHaze.7 mph41%30.21 "Hg2 mi
1:30 am57 °FHaze.6 mph36%30.21 "Hg2 mi
1:00 am57 °FHaze.6 mph36%30.21 "Hg2 mi
12:30 am57 °FHaze.5 mph36%30.21 "Hg2 mi
12:00 am57 °FHaze.6 mph36%30.21 "Hg2 mi
11:30 pm
Thu, Jan 19
59 °FHaze.6 mph36%30.21 "Hg2 mi
11:00 pm59 °FHaze.5 mph39%30.24 "Hg2 mi
10:30 pm59 °FHaze.5 mph39%30.24 "Hg2 mi
10:00 pm59 °FHaze.6 mph42%30.21 "Hg2 mi
9:30 pm59 °FHaze.7 mph42%30.21 "Hg2 mi
9:00 pm61 °FHaze.8 mph39%30.21 "Hg2 mi
8:30 pm61 °FHaze.6 mph36%30.21 "Hg2 mi
8:00 pm63 °FHaze.7 mph32%30.21 "Hg2 mi
7:30 pm63 °FHaze.6 mph30%30.21 "Hg2 mi
7:00 pm64 °FHaze.6 mph28%30.21 "Hg2 mi
6:30 pm64 °FHaze.5 mph26%30.18 "Hg2 mi
6:00 pm66 °FHaze.6 mph22%30.18 "Hg3 mi
5:30 pm68 °FHaze.6 mph21%30.18 "Hg3 mi
5:00 pm70 °FHaze.6 mph20%30.18 "Hg3 mi
Weather by CustomWeather, © 2017

See weather overviewHow to use our weather pages